This demonstration page uses our WeatherBlox Daily Observations layout. Learn more.

41.55636, -103.73856

Hourly Observations for December 6, 2015

Temp ( °F °C ) Dew Point ( °F °C ) Humidity (%) Winds ( mph kmh ) Pressure ( in mb ) Visibility ( mi km ) Precip ( " mm )
12:53 am 00:53 Clear 24 -4.4 17 -8.3 75 75 N 6 9 30.47 1032 10 16.0934 0 0
1:53 am 01:53 Clear 20 -6.7 14 -10 78 78 N 6 9 30.47 1032 10 16.0934 0 0
2:53 am 02:53 Clear 21 -6.1 15 -9.4 78 78 N 5 7 30.46 1031 10 16.0934 0 0
3:53 am 03:53 Clear 19 -7.2 13 -10.6 77 77 Calm 30.45 1031 10 16.0934 0 0
4:53 am 04:53 Clear 18 -7.8 12 -11.1 77 77 ESE 3 6 30.46 1032 10 16.0934 0 0
5:53 am 05:53 Clear 17 -8.3 10 -12.2 74 74 E 7 11 30.47 1032 10 16.0934 0 0
6:53 am 06:53 Clear 18 -7.8 11 -11.7 74 74 E 5 7 30.46 1031 10 16.0934 0 0
7:53 am 07:53 Sunny 22 -5.6 15 -9.4 75 75 ENE 3 6 30.42 1030 10 16.0934 0 0
8:53 am 08:53 Sunny 31 -0.6 19 -7.2 61 61 Calm 30.41 1030 10 16.0934 0 0
9:53 am 09:53 Sunny 38 3.3 19 -7.2 46 46 Calm 30.39 1029 10 16.0934 0 0
10:53 am 10:53 Sunny 45 7.2 17 -8.3 33 33 E 5 7 30.32 1027 10 16.0934 0 0
11:53 am 11:53 Sunny 52 11.1 13 -10.6 21 21 Calm 30.27 1025 10 16.0934 0 0
12:53 pm 12:53 Sunny 56 13.3 10 -12.2 16 16 ESE 3 6 30.21 1023 10 16.0934 0 0
1:53 pm 13:53 Sunny 57 13.9 8 -13.3 14 14 SSW 6 9 30.19 1022 10 16.0934 0 0
2:53 pm 14:53 Sunny 55 12.8 9 -12.8 16 16 SSW 7 11 30.19 1022 10 16.0934 0 0
3:53 pm 15:53 Sunny 50 10 8 -13.3 18 18 SE 8 13 30.19 1023 10 16.0934 0 0
4:53 pm 16:53 Clear 47 8.3 5 -15 18 18 SSE 6 9 30.2 1023 10 16.0934 0 0
5:53 pm 17:53 Clear 35 1.7 8 -13.3 32 32 ESE 6 9 30.23 1024 10 16.0934 0 0
6:53 pm 18:53 Clear 39 3.9 12 -11.1 33 33 NNW 5 7 30.22 1024 10 16.0934 0 0
7:53 pm 19:53 Clear 31 -0.6 14 -10 49 49 NNW 8 13 30.23 1024 10 16.0934 0 0
8:53 pm 20:53 Clear 30 -1.1 14 -10 51 51 NW 5 7 30.21 1023 10 16.0934 0 0
9:53 pm 21:53 Clear 34 1.1 13 -10.6 42 42 WNW 9 15 30.17 1022 10 16.0934 0 0
10:53 pm 22:53 Clear 42 5.6 13 -10.6 30 30 NW 15 24 30.11 1020 10 16.0934 0 0
11:53 pm 23:53 Clear 43 6.1 11 -11.7 27 27 NW 8 13 30.09 1019 10 16.0934 0 0

Powered by AerisWeather